This demonstration page uses our WeatherBlox Daily Observations layout. Learn more.

Left ArrowRight Arrow

39.29038, -76.61219

Hourly Observations for November 25, 2020

Temp ( °F °C ) Dew Point ( °F °C ) Humidity (%) Winds ( mph kmh ) Pressure ( in mb ) Visibility ( mi km ) Precip ( " mm )
12:54 am 00:54 Cloudy 45 7.2 32 0 61 61 S 5 7 30.35 1028 10 16 0.00 0.00
1:54 am 01:54 Cloudy 45 7.2 33 0.6 63 63 SSE 5 7 30.36 1028 10 16 0.00 0.00
2:54 am 02:54 Clear 45 7.2 34 1.1 66 66 SSE 5 7 30.35 1028 10 16 0.00 0.00
3:54 am 03:54 Cloudy 45 7.2 34 1.1 66 66 SSE 5 7 30.32 1027 10 16 0.00 0.00
4:54 am 04:54 Cloudy 45 7.2 35 1.7 68 68 S 8 13 30.31 1027 10 16 0.00 0.00
5:54 am 05:54 Mostly Cloudy 45 7.2 35 1.7 68 68 S 7 11 30.32 1027 10 16 0.00 0.00
6:54 am 06:54 Mostly Cloudy 44 6.7 35 1.7 71 71 Calm 30.34 1027 10 16 0.00 0.00
7:54 am 07:54 Mostly Cloudy 44 6.7 36 2.2 73 73 SE 6 9 30.33 1027 10 16 0.00 0.00
8:54 am 08:54 Partly Cloudy 48 8.9 37 2.8 66 66 S 9 15 30.31 1026 10 16 0.00 0.00
9:54 am 09:54 Mostly Cloudy 49 9.4 36 2.2 61 61 SSW 8 13 30.32 1027 10 16 0.00 0.00
10:54 am 10:54 Mostly Cloudy 53 11.7 35 1.7 51 51 SW 12 19 30.29 1026 10 16 0.00 0.00
11:54 am 11:54 Mostly Cloudy 56 13.3 34 1.1 44 44 SW 10 17 30.26 1025 10 16 0.00 0.00
12:54 pm 12:54 Mostly Cloudy 57 13.9 36 2.2 45 45 SSW 8 13 30.25 1024 10 16 0.00 0.00
1:54 pm 13:54 Cloudy 57 13.9 37 2.8 47 47 SW 6 9 30.24 1024 10 16 0.00 0.00
2:54 pm 14:54 Cloudy 57 13.9 38 3.3 49 49 SSW 6 9 30.21 1023 10 16 0.00 0.00
3:54 pm 15:54 Cloudy 57 13.9 41 5 55 55 S 3 6 30.20 1023 10 16 0.00 0.00
4:54 pm 16:54 Cloudy 57 13.9 42 5.6 58 58 SSE 5 7 30.20 1023 10 16 0.00 0.00
5:54 pm 17:54 Cloudy 55 12.8 43 6.1 64 64 SE 8 13 30.19 1023 10 16 0.00 0.00
7:54 pm 19:54 Cloudy 53 11.7 46 7.8 77 77 Calm 30.18 1022 10 16 0.00 0.00
8:54 pm 20:54 Cloudy 52 11.1 46 7.8 80 80 E 5 7 30.16 1021 10 16 0.00 0.00
9:54 pm 21:54 Cloudy 52 11.1 46 7.8 80 80 ESE 3 6 30.14 1021 10 16 0.00 0.00
10:54 pm 22:54 Cloudy 51 10.6 47 8.3 86 86 E 5 7 30.11 1020 10 16 0.00 0.00
11:54 pm 23:54 Cloudy with Light Rain 52 11.1 48 8.9 86 86 Calm 30.10 1019 7 11 0.00 0.00

Powered by AerisWeather